Terminal Aerodrome Forecast
Issued by NWS Pittsburgh, PA

Current Version | Previous Version | Graphics & Text | Print | Product List | Glossary On
Versions: 1 2 3 4 5 6 7 8 9 10 11 12 13 14 15 16 17 18 19 20 21 22 23 24 25 26 27 28 29
817
FTUS41 KPBZ 251123
TAFPIT
TAF
KPIT 251123Z 2512/2618 10008KT 6SM -RA OVC080
     FM251400 11012G18KT P6SM OVC060
     FM260300 09007KT P6SM BKN025
     FM260800 VRB03KT P6SM OVC015
     FM261500 16008KT P6SM SCT015=

USA.gov is the U.S. government's official web portal to all federal, state and local government web resources and services.